Regional Weather Roundup
Issued by NWS

Home | Current Version | Previous Version | Graphics & Text | Print | Product List | Glossary On
Versions: 1 2 3 4 5 6 7 8 9 10 11 12 13 14 15 16 17 18 19 20 21 22 23 24 25 26 27 28 29 30 31 32 33 34 35 36 37 38 39 40 41 42 43 44 45 46 47 48 49 50
000
ASUS43 KLMK 241010
RWRKY
KENTUCKY REGIONAL WEATHER ROUNDUP
NATIONAL WEATHER SERVICE LOUISVILLE KY
600 AM EDT SUN SEP 24 2017

NOTE "FAIR" INDICATES FEW OR NO CLOUDS BELOW 12,000 FEET
WITH NO SIGNIFICANT WEATHER AND/OR OBSTRUCTIONS TO VISIBILITY.

KYZ001>023-026-027-061>063-070>075-241100-
WESTERN AND SOUTH CENTRAL KENTUCKY

CITY           SKY/WX    TMP DP  RH WIND       PRES   REMARKS
PADUCAH        CLEAR     67  65  93 CALM      30.02R FOG
HENDERSON      FOG       61  61 100 CALM      30.04S VSB 1
OWENSBORO      CLEAR     67  65  93 NE3       30.05R
HOPKINSVILLE   NOT AVBL
BOWLING GREEN  FOG       65  65 100 CALM      30.05R VSB 1/2
GLASGOW        CLEAR    N/A N/A N/A CALM      30.05S HAZE
$$

KYZ024-025-028>034-038-045-046-053-241100-
NORTH CENTRAL KENTUCKY

CITY           SKY/WX    TMP DP  RH WIND       PRES   REMARKS
LOUISVILLE/SDF CLEAR     70  66  87 CALM      30.06S
LOUISVILLE/LOU CLEAR     65  65 100 CALM      30.07R FOG
FORT KNOX      NOT AVBL
$$

KYZ035>037-039>044-047>052-055>060-089>105-241100-
NORTHEAST KENTUCKY

CITY           SKY/WX    TMP DP  RH WIND       PRES   REMARKS
LEXINGTON      CLEAR     67  60  78 E3        30.09R
COVINGTON      CLEAR     67  62  84 E6        30.09S
FRANKFORT      CLEAR     63  59  87 CALM      30.07R
$$

KYZ054-064>069-076>088-106>120-241100-
SOUTHEAST KENTUCKY

CITY           SKY/WX    TMP DP  RH WIND       PRES   REMARKS
JACKSON        CLEAR     66  60  81 E3        30.11S
LONDON         CLEAR     62  60  93 CALM      30.09R
SOMERSET       CLEAR     61  61 100 CALM      30.09S
MIDDLESBORO    CLEAR     61  61 100 CALM      30.11R
MONTICELLO     SUNNY     60  60 100 NE9       30.09S
$$





USA.gov is the U.S. government's official web portal to all federal, state and local government web resources and services.